Weather reports worldwide

Advertisment
Cordoba Aeropuerto (AWS), Spain (8410): temperature & dewpoint: 06.12.2018 00:00:00 - 12.12.2018 00:00:00 (CET)Cordoba Aeropuerto (AWS), Spain (8410): wind speed: 06.12.2018 00:00:00 - 12.12.2018 00:00:00 (CET)Cordoba Aeropuerto (AWS), Spain (8410): wind direction: 06.12.2018 00:00:00 - 12.12.2018 00:00:00 (CET)Cordoba Aeropuerto (AWS), Spain (8410): reduced air pressure: 06.12.2018 00:00:00 - 12.12.2018 00:00:00 (CET)Cordoba Aeropuerto (AWS), Spain (8410): visibility: 06.12.2018 00:00:00 - 12.12.2018 00:00:00 (CET)
Date & Time tt [°C] td [°C] ff [km/h] ff [kn] dd ppp [hPa] vv [km]
12.12.2018 00:00:00 8,7 7,8 4 2 NE 1024,5 -
11.12.2018 23:00:00 9,8 8,6 2 1 NE 1024,4 -
11.12.2018 22:00:00 10,2 8,8 5 3 SSW 1024,5 -
11.12.2018 21:00:00 11,2 9,6 4 2 SSW 1024,3 -
11.12.2018 20:00:00 11,9 9,6 4 2 SW 1024,1 -
11.12.2018 19:00:00 12,8 10,2 0 0 N 1023,6 -
11.12.2018 18:00:00 14,3 10,5 8 4 WSW 1023,6 -
11.12.2018 17:00:00 16,2 10,5 8 4 W 1023,4 -
11.12.2018 16:00:00 16,5 10,5 13 7 WSW 1023,4 15
11.12.2018 15:00:00 16,9 10,2 13 7 WSW 1023,8 -
11.12.2018 14:00:00 16,5 10,6 13 7 WSW 1024,4 -
11.12.2018 13:00:00 15,2 7,8 2 1 SE 1025,1 15
11.12.2018 12:00:00 12,1 6,2 4 2 NE 1026,4 -
11.12.2018 11:00:00 10,6 5,5 5 3 ESE 1026,2 -
11.12.2018 10:00:00 7,8 5,6 4 2 SE 1025,7 15
11.12.2018 09:00:00 4,9 4,3 5 3 WNW 1025,6 -
11.12.2018 08:00:00 4,5 3,8 2 1 ESE 1024,8 -
11.12.2018 07:00:00 5,4 4,5 5 3 NE 1024,5 -
11.12.2018 06:00:00 5,7 4,8 8 4 E 1024,5 -
11.12.2018 05:00:00 5,6 4,9 8 4 E 1024,5 -
11.12.2018 04:00:00 6,3 5,3 4 2 E 1024,7 -
11.12.2018 03:00:00 6,2 5,0 4 2 SE 1024,7 -
11.12.2018 02:00:00 6,6 5,4 4 2 ENE 1024,6 -
11.12.2018 01:00:00 7,6 6,1 8 4 E 1024,9 -
11.12.2018 00:00:00 8,3 6,3 4 2 E 1025,2 -
10.12.2018 23:00:00 9,3 6,6 4 2 E 1025,4 -
10.12.2018 22:00:00 10,1 6,4 9 5 NE 1025,2 -
10.12.2018 21:00:00 11,2 6,9 8 4 ENE 1024,9 -
10.12.2018 20:00:00 12,1 7,0 5 3 NE 1024,7 -
10.12.2018 19:00:00 14,3 7,1 4 2 NE 1024,4 -
10.12.2018 18:00:00 17,4 5,7 8 4 E 1024,2 -
10.12.2018 17:00:00 20,3 4,4 9 5 ENE 1024,0 -
10.12.2018 16:00:00 21,1 4,1 15 8 ENE 1024,3 40
10.12.2018 15:00:00 20,8 2,9 15 8 ENE 1024,9 -
10.12.2018 14:00:00 19,8 3,3 16 9 ENE 1026,0 -
10.12.2018 13:00:00 18,4 3,8 13 7 E 1027,3 40
10.12.2018 12:00:00 16,0 5,5 18 10 ENE 1028,5 -
10.12.2018 11:00:00 13,7 7,1 16 9 E 1029,1 -
10.12.2018 10:00:00 11,6 7,3 16 9 E 1028,8 40
10.12.2018 09:00:00 9,4 6,7 18 10 E 1028,4 -
10.12.2018 08:00:00 8,8 6,6 11 6 ESE 1028,3 -
10.12.2018 07:00:00 9,2 7,1 13 7 E 1028,3 -
10.12.2018 06:00:00 9,6 7,5 16 9 ENE 1028,3 -
10.12.2018 05:00:00 9,7 7,8 13 7 ENE 1028,4 -
10.12.2018 04:00:00 9,8 8,2 13 7 ENE 1028,7 -
10.12.2018 03:00:00 10,2 8,6 9 5 E 1029,0 -
10.12.2018 02:00:00 9,5 8,4 8 4 ENE 1028,9 -
10.12.2018 01:00:00 8,3 7,7 4 2 NE 1029,4 -
10.12.2018 00:00:00 8,3 7,4 0 0 N 1029,6 -
09.12.2018 23:00:00 8,9 8,0 0 0 N 1029,6 -
09.12.2018 22:00:00 9,5 8,4 4 2 NE 1029,3 -
09.12.2018 21:00:00 10,8 9,2 4 2 ENE 1029,1 -
09.12.2018 20:00:00 11,9 9,6 0 0 N 1028,7 -
09.12.2018 19:00:00 13,9 9,9 0 0 N 1028,1 -
09.12.2018 18:00:00 18,2 8,5 0 0 N 1027,6 -
09.12.2018 17:00:00 20,3 8,9 8 4 E 1027,4 -
09.12.2018 16:00:00 20,5 7,5 8 4 E 1027,3 50
09.12.2018 15:00:00 19,9 7,6 8 4 E 1027,6 -
09.12.2018 14:00:00 18,3 8,2 11 6 E 1028,4 -
09.12.2018 13:00:00 16,6 7,7 21 11 E 1029,4 50
09.12.2018 12:00:00 14,7 8,4 13 7 E 1030,6 -
09.12.2018 11:00:00 12,5 8,2 13 7 E 1031,3 -
09.12.2018 10:00:00 9,4 7,8 5 3 ESE 1031,3 50
09.12.2018 09:00:00 5,7 5,4 2 1 S 1031,2 -
09.12.2018 08:00:00 5,4 5,1 0 0 N 1031,0 -
09.12.2018 07:00:00 5,2 4,9 0 0 N 1030,7 -
09.12.2018 06:00:00 5,6 5,3 4 2 NNE 1030,6 -
09.12.2018 05:00:00 5,2 4,9 5 3 NE 1030,5 -
09.12.2018 04:00:00 5,5 5,2 4 2 S 1030,9 -
09.12.2018 03:00:00 5,9 5,5 0 0 N 1030,6 -
09.12.2018 02:00:00 6,3 5,9 0 0 N 1030,3 -
09.12.2018 01:00:00 6,5 6,1 0 0 N 1030,2 -
09.12.2018 00:00:00 6,9 6,3 4 2 SSW 1030,2 -
08.12.2018 23:00:00 8,0 7,4 4 2 W 1030,1 -
08.12.2018 22:00:00 8,5 7,6 0 0 N 1029,9 -
08.12.2018 21:00:00 9,4 8,3 2 1 NNE 1029,4 -
08.12.2018 20:00:00 10,8 9,4 0 0 N 1029,0 -
08.12.2018 19:00:00 12,1 10,0 4 2 S 1028,4 -
08.12.2018 18:00:00 14,3 10,6 4 2 W 1028,0 -
08.12.2018 17:00:00 18,5 10,6 0 0 N 1027,6 -
08.12.2018 16:00:00 18,4 10,7 9 5 E 1027,7 30
08.12.2018 15:00:00 16,4 9,6 4 2 N 1028,4 -
08.12.2018 14:00:00 16,3 9,8 4 2 ESE 1028,5 -
08.12.2018 13:00:00 14,1 9,5 4 2 NE 1029,3 30
08.12.2018 12:00:00 12,8 9,4 9 5 NE 1030,2 -
08.12.2018 11:00:00 11,6 9,2 0 0 N 1030,7 -
08.12.2018 10:00:00 8,0 7,6 5 3 W 1030,5 25
08.12.2018 09:00:00 4,7 4,6 4 2 SSW 1030,3 -
08.12.2018 08:00:00 4,0 3,9 0 0 N 1030,0 -
08.12.2018 07:00:00 4,1 4,0 0 0 N 1029,6 -
08.12.2018 06:00:00 5,1 5,0 0 0 N 1029,2 -
08.12.2018 05:00:00 5,5 5,2 0 0 N 1029,5 -
08.12.2018 04:00:00 5,8 5,5 2 1 SW 1029,6 -
08.12.2018 03:00:00 6,3 6,0 0 0 N 1029,5 -
08.12.2018 02:00:00 6,9 6,5 4 2 SW 1029,3 -
08.12.2018 01:00:00 7,5 7,1 5 3 NE 1029,6 -
08.12.2018 00:00:00 7,7 7,1 2 1 SW 1029,7 -
07.12.2018 23:00:00 8,3 7,5 2 1 SE 1029,6 -
07.12.2018 22:00:00 9,0 8,1 4 2 WSW 1029,5 -
07.12.2018 21:00:00 10,2 9,1 0 0 N 1029,1 -
07.12.2018 20:00:00 11,5 9,7 0 0 N 1028,5 -
07.12.2018 19:00:00 13,5 10,8 0 0 N 1028,2 -
07.12.2018 18:00:00 17,6 11,2 0 0 N 1027,3 -
07.12.2018 17:00:00 19,7 11,3 4 2 NNW 1026,8 -
07.12.2018 16:00:00 19,9 11,1 2 1 SE 1026,8 25
07.12.2018 15:00:00 19,5 10,8 4 2 SSE 1027,4 -
07.12.2018 14:00:00 18,2 10,6 4 2 WSW 1028,2 -
07.12.2018 13:00:00 16,6 10,1 5 3 E 1028,5 20
07.12.2018 12:00:00 14,2 9,5 9 5 NE 1029,6 -
07.12.2018 11:00:00 12,0 9,4 9 5 E 1029,7 -
07.12.2018 10:00:00 8,7 8,2 0 0 N 1029,6 11
07.12.2018 09:00:00 4,9 4,8 0 0 N 1029,2 -
07.12.2018 08:00:00 4,4 4,1 0 0 N 1028,8 -
07.12.2018 07:00:00 4,9 4,6 0 0 N 1028,3 -
07.12.2018 06:00:00 5,1 4,8 0 0 N 1027,9 -
07.12.2018 05:00:00 5,6 5,3 0 0 N 1028,0 -
07.12.2018 04:00:00 6,0 5,6 0 0 N 1028,0 -
07.12.2018 03:00:00 6,4 6,0 2 1 W 1027,8 -
07.12.2018 02:00:00 7,4 6,8 2 1 SE 1027,7 -
07.12.2018 01:00:00 7,8 7,2 0 0 N 1027,8 -
07.12.2018 00:00:00 8,8 8,0 4 2 W 1027,9 -
06.12.2018 23:00:00 9,2 8,3 2 1 W 1027,7 -
06.12.2018 22:00:00 10,0 9,2 8 4 WNW 1027,5 -
06.12.2018 21:00:00 11,2 10,1 0 0 N 1027,2 -
06.12.2018 20:00:00 12,8 11,2 0 0 N 1026,7 -
06.12.2018 19:00:00 15,0 12,1 0 0 N 1026,1 -
06.12.2018 18:00:00 20,0 12,2 4 2 W 1025,8 -
06.12.2018 17:00:00 22,9 11,6 4 2 W 1025,6 -
06.12.2018 16:00:00 23,1 12,0 0 0 N 1025,6 30
06.12.2018 15:00:00 22,3 11,5 4 2 SW 1026,1 -
06.12.2018 14:00:00 20,6 11,5 0 0 N 1026,8 -
06.12.2018 13:00:00 18,2 11,0 4 2 NNE 1027,7 30
06.12.2018 12:00:00 16,7 10,6 8 4 E 1028,4 -
06.12.2018 11:00:00 14,5 10,1 11 6 E 1028,9 -
06.12.2018 10:00:00 11,2 9,9 5 3 ENE 1029,0 -
06.12.2018 09:00:00 6,6 6,5 5 3 E 1028,7 -
06.12.2018 08:00:00 5,4 5,3 5 3 E 1028,5 -
06.12.2018 07:00:00 5,6 5,5 4 2 ENE 1028,2 -
06.12.2018 06:00:00 5,8 5,6 4 2 NW 1027,7 -
06.12.2018 05:00:00 6,3 6,0 2 1 ENE 1027,6 -
06.12.2018 04:00:00 6,6 6,3 0 0 N 1027,6 -
06.12.2018 03:00:00 7,2 6,9 5 3 WNW 1027,5 -
06.12.2018 02:00:00 7,6 7,2 5 3 ENE 1027,0 -
06.12.2018 01:00:00 7,9 7,3 4 2 WNW 1027,4 -
06.12.2018 00:00:00 8,9 8,3 5 3 NE 1027,4 -

tt = temperature
td = dewpoint
ff = wind speed
dd = wind direction
ppp = reduced air pressure
vv = visibility

Next stations